DLH9ED EHEH-LIME

Flight info

Callsign DLH9ED
Flight time N/A
Altitude 39000
Route LNO Z283 RITAX UT27 ROUSY DCT GTQ DCT POGOL DCT LASAT DCT DEVDI DCT RIPUS DCT GERSA DCT SOSON DCT ODINA
Aircraft B738/M-SDE2E3FGHIRWXY/LB1

Departure

Time 2026-04-30 11:38
Airport Eindhoven Airport (EHEH)

Arrival

Time N/A
Airport Il Caravaggio International Airport (LIME)
Time Latitude Longitude Altitude Speed Heading
2026-04-30 10:53 51.45616 5.38779 74 ft 0 kts 125°
2026-04-30 11:23 51.45621 5.38769 63 ft 4 kts 125°
2026-04-30 11:23 51.45647 5.38695 63 ft 4 kts 96°
2026-04-30 11:24 51.45643 5.38667 65 ft 1 kts 35°
2026-04-30 11:24 51.45643 5.38666 64 ft 1 kts 35°
2026-04-30 11:28 51.45644 5.38668 65 ft 1 kts 35°
2026-04-30 11:28 51.45676 5.38704 69 ft 9 kts 36°
2026-04-30 11:29 51.45729 5.38764 72 ft 10 kts 36°
2026-04-30 11:29 51.45778 5.38792 69 ft 7 kts 344°
2026-04-30 11:29 51.45840 5.38669 69 ft 7 kts 305°
2026-04-30 11:30 51.45895 5.38545 70 ft 7 kts 306°
2026-04-30 11:30 51.45922 5.38485 69 ft 7 kts 306°
2026-04-30 11:30 51.45953 5.38418 69 ft 9 kts 306°
2026-04-30 11:31 51.45989 5.38337 64 ft 7 kts 306°
2026-04-30 11:31 51.45986 5.38263 74 ft 7 kts 225°
2026-04-30 11:31 51.45943 5.38213 69 ft 9 kts 214°
2026-04-30 11:31 51.45868 5.38131 69 ft 18 kts 214°
2026-04-30 11:32 51.45744 5.37996 74 ft 23 kts 218°
2026-04-30 11:32 51.45614 5.37846 67 ft 23 kts 214°
2026-04-30 11:32 51.45485 5.37705 69 ft 22 kts 214°
2026-04-30 11:33 51.45241 5.37434 74 ft 21 kts 212°
2026-04-30 11:33 51.45126 5.37302 74 ft 20 kts 221°
2026-04-30 11:33 51.45013 5.37172 74 ft 20 kts 214°
2026-04-30 11:33 51.44903 5.37049 70 ft 19 kts 215°
2026-04-30 11:34 51.44796 5.36931 68 ft 18 kts 214°
2026-04-30 11:34 51.44694 5.36815 72 ft 18 kts 214°
2026-04-30 11:34 51.44593 5.36707 68 ft 17 kts 214°
2026-04-30 11:34 51.44499 5.36598 64 ft 16 kts 216°
2026-04-30 11:35 51.44408 5.36494 68 ft 16 kts 214°
2026-04-30 11:35 51.44320 5.36396 71 ft 15 kts 214°
2026-04-30 11:35 51.44235 5.36302 74 ft 13 kts 215°
2026-04-30 11:35 51.44207 5.36270 71 ft 5 kts 214°
2026-04-30 11:36 51.44176 5.36267 74 ft 5 kts 154°
2026-04-30 11:36 51.44154 5.36305 87 ft 5 kts 125°
2026-04-30 11:36 51.44136 5.36347 68 ft 5 kts 123°
2026-04-30 11:36 51.44119 5.36390 68 ft 5 kts 121°
2026-04-30 11:37 51.44117 5.36449 71 ft 6 kts 50°
2026-04-30 11:37 51.44140 5.36475 74 ft 1 kts 34°
2026-04-30 11:37 51.44206 5.36548 72 ft 33 kts 34°
2026-04-30 11:37 51.44589 5.36976 75 ft 101 kts 34°
2026-04-30 11:38 51.45322 5.37813 74 ft 154 kts 33°
2026-04-30 11:38 51.46209 5.38719 796 ft 140 kts 41°
2026-04-30 11:38 51.47005 5.39547 1489 ft 138 kts 41°
2026-04-30 11:38 51.47832 5.40407 2095 ft 144 kts 42°
2026-04-30 11:39 51.48661 5.41363 2685 ft 151 kts 46°
2026-04-30 11:39 51.49513 5.42415 3193 ft 163 kts 46°
2026-04-30 11:39 51.50501 5.43604 3444 ft 189 kts 51°
2026-04-30 11:39 51.51150 5.45419 3620 ft 193 kts 90°
2026-04-30 11:40 51.50938 5.47553 3977 ft 199 kts 106°
2026-04-30 11:40 51.50612 5.49749 4609 ft 203 kts 105°
2026-04-30 11:40 51.50289 5.51966 5371 ft 206 kts 105°
2026-04-30 11:40 51.49955 5.54234 6034 ft 211 kts 105°
2026-04-30 11:41 51.49616 5.56525 6718 ft 216 kts 104°
2026-04-30 11:41 51.49272 5.58934 7191 ft 231 kts 104°
2026-04-30 11:41 51.48912 5.61576 7555 ft 250 kts 103°
2026-04-30 11:41 51.48451 5.64303 8227 ft 256 kts 116°
2026-04-30 11:42 51.47359 5.66573 9028 ft 261 kts 135°
2026-04-30 11:42 51.45901 5.68361 9830 ft 267 kts 143°
2026-04-30 11:42 51.44347 5.69989 10580 ft 273 kts 144°
2026-04-30 11:42 51.42684 5.71691 10887 ft 296 kts 144°
2026-04-30 11:43 51.40872 5.73555 11052 ft 321 kts 144°
2026-04-30 11:43 51.38933 5.75564 11222 ft 343 kts 144°
2026-04-30 11:43 51.36885 5.77697 11599 ft 357 kts 144°
2026-04-30 11:43 51.34784 5.79892 12213 ft 362 kts 144°
2026-04-30 11:44 51.32665 5.82112 12977 ft 364 kts 144°
2026-04-30 11:44 51.30560 5.84320 13417 ft 355 kts 143°
2026-04-30 11:44 51.28535 5.86443 13389 ft 348 kts 143°
2026-04-30 11:44 51.26524 5.88551 13382 ft 342 kts 144°
2026-04-30 11:45 51.24415 5.90271 13367 ft 343 kts 161°
2026-04-30 11:45 51.22063 5.90899 13423 ft 341 kts 169°
2026-04-30 11:45 51.19719 5.91351 13413 ft 337 kts 169°
2026-04-30 11:45 51.17389 5.91731 13434 ft 335 kts 171°
2026-04-30 11:46 51.15037 5.92020 13484 ft 347 kts 172°
2026-04-30 11:46 51.12548 5.92303 13657 ft 369 kts 172°
2026-04-30 11:46 51.09926 5.92599 14019 ft 384 kts 173°
2026-04-30 11:46 51.07229 5.92902 14585 ft 390 kts 172°
2026-04-30 11:47 51.04520 5.93210 15321 ft 392 kts 172°
2026-04-30 11:47 51.01790 5.93526 16007 ft 395 kts 173°
2026-04-30 11:47 50.99134 5.93832 16242 ft 380 kts 172°
2026-04-30 11:47 50.96519 5.94137 16223 ft 371 kts 172°
2026-04-30 11:48 50.93970 5.94438 16226 ft 365 kts 172°
2026-04-30 11:48 50.91411 5.94747 16285 ft 376 kts 172°
2026-04-30 11:48 50.88736 5.95078 16467 ft 395 kts 172°
2026-04-30 11:48 50.85960 5.95417 16932 ft 404 kts 172°
2026-04-30 11:49 50.83145 5.95756 17602 ft 407 kts 172°
2026-04-30 11:49 50.80347 5.96089 18275 ft 409 kts 172°
2026-04-30 11:49 50.77490 5.96428 18870 ft 413 kts 172°
2026-04-30 11:49 50.74606 5.96771 19393 ft 418 kts 172°
2026-04-30 11:50 50.71734 5.97113 19941 ft 421 kts 173°
2026-04-30 11:50 50.68799 5.97461 20509 ft 424 kts 173°
2026-04-30 11:50 50.65837 5.97812 21054 ft 428 kts 173°
2026-04-30 11:50 50.62857 5.98165 21559 ft 432 kts 173°
2026-04-30 11:51 50.59844 5.98522 22060 ft 436 kts 173°
2026-04-30 11:51 50.56810 5.98881 22557 ft 439 kts 173°
2026-04-30 11:51 50.53747 5.99243 23044 ft 443 kts 173°
2026-04-30 11:51 50.50656 5.99607 23521 ft 446 kts 173°
2026-04-30 11:52 50.47547 6.00046 23974 ft 449 kts 169°
2026-04-30 11:52 50.44502 6.00858 24382 ft 449 kts 166°
2026-04-30 11:52 50.41435 6.01828 24852 ft 450 kts 165°
2026-04-30 11:52 50.38349 6.02852 25261 ft 453 kts 165°
2026-04-30 11:53 50.35258 6.03876 25653 ft 455 kts 165°
2026-04-30 11:53 50.32148 6.04887 26046 ft 458 kts 165°
2026-04-30 11:53 50.29019 6.05882 26430 ft 460 kts 165°
2026-04-30 11:53 50.25867 6.06865 26816 ft 462 kts 165°
2026-04-30 11:54 50.22700 6.07841 27192 ft 464 kts 165°
2026-04-30 11:54 50.19517 6.08814 27556 ft 467 kts 165°
2026-04-30 11:54 50.16319 6.09787 27907 ft 469 kts 165°
2026-04-30 11:54 50.13152 6.10750 28240 ft 471 kts 165°
2026-04-30 11:55 50.09925 6.11730 28618 ft 472 kts 165°
2026-04-30 11:55 50.06708 6.12705 29128 ft 470 kts 165°
2026-04-30 11:55 50.03500 6.13675 29693 ft 467 kts 165°
2026-04-30 11:55 50.00324 6.14635 30218 ft 465 kts 165°
2026-04-30 11:56 49.97135 6.15599 30623 ft 465 kts 165°
2026-04-30 11:56 49.93960 6.16558 31032 ft 464 kts 165°
2026-04-30 11:56 49.90796 6.17513 31474 ft 462 kts 165°
2026-04-30 11:56 49.87646 6.18462 31901 ft 460 kts 165°
2026-04-30 11:57 49.84501 6.19409 32297 ft 460 kts 165°
2026-04-30 11:57 49.81364 6.20353 32704 ft 458 kts 165°
2026-04-30 11:57 49.78233 6.21292 33137 ft 457 kts 165°
2026-04-30 11:57 49.75116 6.22227 33561 ft 455 kts 165°
2026-04-30 11:58 49.72010 6.23156 33961 ft 454 kts 165°
2026-04-30 11:58 49.68955 6.24070 34347 ft 453 kts 165°
2026-04-30 11:58 49.65861 6.24994 34666 ft 452 kts 165°
2026-04-30 11:58 49.62768 6.25917 34940 ft 452 kts 165°
2026-04-30 11:59 49.59674 6.26839 35209 ft 453 kts 165°
2026-04-30 11:59 49.56584 6.27759 35528 ft 452 kts 165°
2026-04-30 11:59 49.53502 6.28674 35869 ft 451 kts 165°
2026-04-30 11:59 49.50407 6.29593 36037 ft 454 kts 166°
2026-04-30 12:00 49.47293 6.30517 36264 ft 455 kts 166°
2026-04-30 12:00 49.44193 6.31434 36605 ft 453 kts 166°
2026-04-30 12:00 49.41100 6.32348 36905 ft 452 kts 166°
2026-04-30 12:00 49.38044 6.33250 37160 ft 453 kts 166°
2026-04-30 12:01 49.34948 6.34162 37394 ft 453 kts 166°
2026-04-30 12:01 49.31860 6.35070 37783 ft 450 kts 166°
2026-04-30 12:01 49.28790 6.35973 38106 ft 448 kts 166°
2026-04-30 12:01 49.25713 6.36876 38302 ft 450 kts 166°
2026-04-30 12:02 49.22629 6.37781 38489 ft 451 kts 165°
2026-04-30 12:02 49.19550 6.38685 38731 ft 450 kts 167°
2026-04-30 12:02 49.16481 6.39584 38988 ft 449 kts 166°
2026-04-30 12:02 49.13412 6.40480 39174 ft 449 kts 165°
2026-04-30 12:03 49.04176 6.43171 39280 ft 455 kts 167°
2026-04-30 12:04 48.97957 6.44980 39266 ft 454 kts 167°
2026-04-30 12:04 48.92779 6.46481 39272 ft 453 kts 166°
2026-04-30 12:05 48.86579 6.48273 39255 ft 453 kts 166°
2026-04-30 12:05 48.80390 6.50057 39262 ft 453 kts 167°
2026-04-30 12:06 48.74194 6.51840 39261 ft 453 kts 166°
2026-04-30 12:06 48.68007 6.53617 39272 ft 453 kts 167°
2026-04-30 12:07 48.61836 6.55383 39267 ft 454 kts 167°
2026-04-30 12:07 48.55620 6.57158 39244 ft 454 kts 167°
2026-04-30 12:08 48.49402 6.58932 39239 ft 455 kts 166°
2026-04-30 12:08 48.43171 6.60700 39233 ft 456 kts 167°
2026-04-30 12:09 48.36973 6.62457 39223 ft 456 kts 167°
2026-04-30 12:09 48.30715 6.64226 39224 ft 457 kts 166°
2026-04-30 12:10 48.24451 6.65995 39215 ft 458 kts 168°
2026-04-30 12:10 48.18241 6.68129 39200 ft 457 kts 155°
2026-04-30 12:10 48.15498 6.70490 39228 ft 454 kts 141°
2026-04-30 12:11 48.13204 6.73707 39203 ft 451 kts 127°
2026-04-30 12:11 48.09576 6.81259 39209 ft 450 kts 123°
2026-04-30 12:12 48.05990 6.88924 39228 ft 449 kts 123°
2026-04-30 12:12 48.02364 6.96528 39218 ft 449 kts 123°
2026-04-30 12:13 47.98716 7.04080 39223 ft 448 kts 123°
2026-04-30 12:13 47.95061 7.11600 39232 ft 447 kts 122°
2026-04-30 12:14 47.91408 7.19101 39232 ft 447 kts 123°
2026-04-30 12:14 47.87743 7.26611 39235 ft 448 kts 124°
2026-04-30 12:15 47.84066 7.34125 39240 ft 449 kts 124°
2026-04-30 12:15 47.80397 7.41602 39227 ft 451 kts 124°